EW9411 Weather Reports


Display with metric or nautical units.
time (UTC)temp
F
wind
direction
speed
MPH
gust
MPH
rain 1hr
in
rain 24hr
in
rain mn
in
humidity
%
barometer
mb
20260504184135 71 214 6.0 15.0 0.00 0.00 0.00 39 1008.3
20260504183842 71 213 6.0 14.0 0.00 0.00 0.00 38 1008.4
20260504183644 71 281 8.0 18.0 0.00 0.00 0.00 37 1008.3
20260504183332 71 198 8.0 18.0 0.00 0.00 0.00 37 1008.4
20260504183133 71 170 8.0 19.0 0.00 0.00 0.00 38 1008.4
20260504182840 71 215 9.0 19.0 0.00 0.00 0.00 37 1008.5
20260504182658 71 220 6.0 19.0 0.00 0.00 0.00 38 1008.4
20260504182347 70 200 11.0 19.0 0.00 0.00 0.00 37 1008.6
20260504182146 71 205 10.0 18.0 0.00 0.00 0.00 38 1008.6
20260504181836 71 214 5.0 11.0 0.00 0.00 0.00 39 1008.6
20260504181656 71 183 5.0 19.0 0.00 0.00 0.00 38 1008.6
20260504181343 71 210 5.0 19.0 0.00 0.00 0.00 38 1008.7
20260504181200 70 16 7.0 19.0 0.00 0.00 0.00 38 1008.7
20260504180909 70 200 9.0 19.0 0.00 0.00 0.00 37 1008.8
20260504180645 70 269 10.0 17.0 0.00 0.00 0.00 38 1008.8
20260504180336 70 246 8.0 15.0 0.00 0.00 0.00 39 1008.7
20260504180134 70 228 8.0 15.0 0.00 0.00 0.00 38 1008.8
20260504175841 70 280 6.0 15.0 0.00 0.00 0.00 39 1008.7
20260504175642 70 212 5.0 15.0 0.00 0.00 0.00 39 1008.8
20260504175349 69 259 7.0 15.0 0.00 0.00 0.00 38 1008.7
20260504175150 69 229 8.0 15.0 0.00 0.00 0.00 37 1008.9
20260504174837 69 242 7.0 17.0 0.00 0.00 0.00 39 1008.9
20260504174638 69 210 9.0 17.0 0.00 0.00 0.00 38 1008.9
20260504174345 69 321 6.0 19.0 0.00 0.00 0.00 40 1008.9
20260504174147 69 250 7.0 19.0 0.00 0.00 0.00 38 1009.0
20260504173833 69 218 9.0 19.0 0.00 0.00 0.00 39 1009.1
20260504173636 69 204 11.0 19.0 0.00 0.00 0.00 39 1009.1
20260504173343 69 256 4.0 18.0 0.00 0.00 0.00 41 1009.2
20260504173146 69 245 9.0 18.0 0.00 0.00 0.00 39 1009.2
20260504172852 69 208 11.0 18.0 0.00 0.00 0.00 39 1009.4
20260504172633 69 218 11.0 18.0 0.00 0.00 0.00 38 1009.4
20260504172336 69 223 8.0 18.0 0.00 0.00 0.00 39 1009.4
20260504172134 69 216 5.0 18.0 0.00 0.00 0.00 40 1009.3
20260504171903 68 245 7.0 16.0 0.00 0.00 0.00 39 1009.5
20260504171640 68 266 8.0 16.0 0.00 0.00 0.00 39 1009.4
20260504171349 68 212 8.0 22.0 0.00 0.00 0.00 39 1009.5
20260504171148 68 235 9.0 22.0 0.00 0.00 0.00 38 1009.7
20260504170840 68 253 9.0 22.0 0.00 0.00 0.00 39 1009.7
20260504170638 68 256 10.0 22.0 0.00 0.00 0.00 38 1009.6
20260504170349 69 216 7.0 18.0 0.00 0.00 0.00 41 1009.7
20260504170146 69 246 6.0 18.0 0.00 0.00 0.00 41 1009.7
20260504160343 67 199 5.0 14.0 0.00 0.00 0.00 41 1010.1
20260504160142 66 202 7.0 14.0 0.00 0.00 0.00 42 1010.2
20260504151139 65 252 10.0 17.0 0.00 0.00 0.00 40 1010.9
20260504150846 64 202 9.0 17.0 0.00 0.00 0.00 44 1010.8
20260504150647 64 198 10.0 17.0 0.00 0.00 0.00 43 1010.9
20260504150334 64 216 10.0 17.0 0.00 0.00 0.00 44 1010.8
20260504150156 64 189 5.0 13.0 0.00 0.00 0.00 44 1010.9
20260504141332 63 233 4.0 12.0 0.00 0.00 0.00 45 1011.3
20260504141150 62 252 8.0 13.0 0.00 0.00 0.00 44 1011.3
20260504140901 62 193 5.0 13.0 0.00 0.00 0.00 45 1011.4
20260504140638 62 237 8.0 13.0 0.00 0.00 0.00 44 1011.4
20260504140349 62 238 8.0 13.0 0.00 0.00 0.00 44 1011.5
20260504140148 62 194 5.0 13.0 0.00 0.00 0.00 46 1011.4
20260504130638 56 182 4.0 9.0 0.00 0.00 0.00 54 1012.0
20260504130348 56 216 5.0 9.0 0.00 0.00 0.00 54 1012.0
20260504130147 56 193 5.0 9.0 0.00 0.00 0.00 54 1012.1
20260504120140 50 207 5.0 10.0 0.00 0.00 0.00 64 1012.3
20260504110649 44 167 1.0 5.0 0.00 0.00 0.00 76 1012.4
20260504110335 44 166 3.0 5.0 0.00 0.00 0.00 76 1012.4
20260504110137 43 210 2.0 4.0 0.00 0.00 0.00 76 1012.4
20260504100355 39 210 1.0 3.0 0.00 0.00 0.00 85 1012.2
20260504100137 39 210 2.0 3.0 0.00 0.00 0.00 85 1012.3
20260504090134 39 210 0.0 0.0 0.00 0.00 0.00 84 1012.0
20260504081846 41 210 0.0 1.0 0.00 0.00 0.00 79 1011.8
20260504081704 41 210 0.0 1.0 0.00 0.00 0.00 79 1011.8
20260504081352 41 210 1.0 1.0 0.00 0.00 0.00 79 1011.8
20260504081150 41 210 0.0 2.0 0.00 0.00 0.00 79 1011.8
20260504080841 41 210 0.0 2.0 0.00 0.00 0.00 79 1011.8
20260504080701 41 210 1.0 2.0 0.00 0.00 0.00 79 1011.8
20260504080351 41 210 1.0 2.0 0.00 0.00 0.00 79 1011.8
20260504080210 41 210 0.0 2.0 0.00 0.00 0.00 79 1011.8
20260504070350 45 173 1.0 4.0 0.00 0.00 0.00 70 1011.5
20260504070147 46 173 2.0 4.0 0.00 0.00 0.00 70 1011.5
20260504060144 39 341 1.0 2.0 0.00 0.00 0.00 87 1011.5
20260504050651 39 341 0.0 1.0 0.00 0.00 0.00 85 1011.3
20260504050342 39 341 0.0 1.0 0.00 0.00 0.00 84 1011.3
20260504050140 39 341 0.0 0.0 0.00 0.00 0.00 84 1011.3
20260504045850 39 341 0.0 0.0 0.00 0.00 0.00 84 1011.4
20260504045649 39 341 0.0 0.0 0.00 0.00 0.00 84 1011.4
20260504045401 39 341 0.0 0.0 0.00 0.00 0.00 83 1011.4
20260504045138 39 341 0.0 0.0 0.00 0.00 0.00 83 1011.4
20260504044850 39 341 0.0 0.0 0.00 0.00 0.00 83 1011.3
20260504044649 40 341 0.0 0.0 0.00 0.00 0.00 83 1011.3
20260504044359 40 341 0.0 0.0 0.00 0.00 0.00 83 1011.3
20260504044135 40 341 0.0 0.0 0.00 0.00 0.00 83 1011.3
20260504043903 40 341 0.0 0.0 0.00 0.00 0.00 82 1011.3
20260504043643 40 341 0.0 0.0 0.00 0.00 0.00 82 1011.3
20260504043349 40 341 0.0 0.0 0.00 0.00 0.00 82 1011.3
20260504043151 40 341 0.0 0.0 0.00 0.00 0.00 82 1011.3
20260504042837 40 341 0.0 0.0 0.00 0.00 0.00 81 1011.2
20260504042700 40 341 0.0 0.0 0.00 0.00 0.00 81 1011.2
20260504042406 40 341 0.0 1.0 0.00 0.00 0.00 81 1011.1
20260504042143 40 341 0.0 1.0 0.00 0.00 0.00 81 1011.1
20260504041835 40 341 0.0 1.0 0.00 0.00 0.00 81 1011.1
20260504041632 40 341 0.0 0.0 0.00 0.00 0.00 80 1011.0
20260504041341 41 341 0.0 0.0 0.00 0.00 0.00 80 1011.0
20260504041201 41 341 0.0 0.0 0.00 0.00 0.00 80 1010.9
20260504040849 41 341 0.0 0.0 0.00 0.00 0.00 80 1011.0
20260504040647 41 341 0.0 0.0 0.00 0.00 0.00 80 1010.9
20260504040338 41 341 0.0 0.0 0.00 0.00 0.00 80 1010.9
20260504040155 41 341 0.0 0.0 0.00 0.00 0.00 79 1010.9
20260504035840 41 341 0.0 0.0 0.00 0.00 0.00 79 1010.9
20260504035700 41 341 0.0 0.0 0.00 0.00 0.00 79 1010.9
20260504035351 41 341 0.0 0.0 0.00 0.00 0.00 79 1010.9
20260504035148 41 341 0.0 0.0 0.00 0.00 0.00 79 1010.8
20260504034839 42 341 0.0 0.0 0.00 0.00 0.00 78 1010.9
20260504034659 42 341 0.0 0.0 0.00 0.00 0.00 78 1010.9
20260504034346 42 341 0.0 0.0 0.00 0.00 0.00 78 1010.9
20260504034148 42 341 0.0 0.0 0.00 0.00 0.00 77 1010.9
20260504033855 42 341 0.0 0.0 0.00 0.00 0.00 77 1010.8
20260504033637 42 341 0.0 1.0 0.00 0.00 0.00 77 1010.8
20260504033345 42 341 0.0 1.0 0.00 0.00 0.00 77 1010.9
20260504033146 42 341 0.0 1.0 0.00 0.00 0.00 76 1010.9
20260504032833 42 341 0.0 1.0 0.00 0.00 0.00 76 1011.0
20260504032634 42 341 0.0 0.0 0.00 0.00 0.00 76 1010.9
20260504032401 42 341 0.0 1.0 0.00 0.00 0.00 75 1011.0
20260504032141 43 341 0.0 1.0 0.00 0.00 0.00 76 1011.0
20260504031848 43 341 0.0 1.0 0.00 0.00 0.00 75 1011.0
20260504031645 43 341 0.0 1.0 0.00 0.00 0.00 74 1010.9
20260504031335 43 341 0.0 1.0 0.00 0.00 0.00 74 1010.9
20260504031133 43 341 0.0 1.0 0.00 0.00 0.00 74 1010.9
20260504030844 43 341 0.0 0.0 0.00 0.00 0.00 73 1010.9
20260504030642 43 341 0.0 0.0 0.00 0.00 0.00 73 1010.9
20260504030353 43 341 0.0 0.0 0.00 0.00 0.00 73 1010.9
20260504030150 43 341 0.0 1.0 0.00 0.00 0.00 72 1010.9
20260504025841 44 341 0.0 1.0 0.00 0.00 0.00 72 1010.9
20260504025638 44 341 0.0 1.0 0.00 0.00 0.00 72 1010.9
20260504025349 44 341 0.0 1.0 0.00 0.00 0.00 72 1010.9
20260504025147 44 341 0.0 0.0 0.00 0.00 0.00 72 1010.9
20260504024858 44 341 0.0 0.0 0.00 0.00 0.00 71 1010.9
20260504024635 44 341 0.0 1.0 0.00 0.00 0.00 71 1010.9
20260504024345 44 341 0.0 1.0 0.00 0.00 0.00 71 1010.9
20260504024143 44 341 0.0 1.0 0.00 0.00 0.00 71 1010.9
20260504023854 44 341 0.0 1.0 0.00 0.00 0.00 70 1010.9
20260504023650 44 341 0.0 1.0 0.00 0.00 0.00 71 1010.9
20260504023337 45 341 0.0 1.0 0.00 0.00 0.00 70 1010.9
20260504023139 45 341 0.0 0.0 0.00 0.00 0.00 70 1010.9
20260504022847 45 341 0.0 0.0 0.00 0.00 0.00 70 1010.9
20260504022648 45 341 0.0 0.0 0.00 0.00 0.00 70 1010.9
20260504022335 45 341 0.0 0.0 0.00 0.00 0.00 69 1010.9
20260504022136 45 341 0.0 0.0 0.00 0.00 0.00 69 1010.8
20260504021843 45 341 0.0 0.0 0.00 0.00 0.00 68 1010.8
20260504021707 45 341 0.0 0.0 0.00 0.00 0.00 68 1010.8
20260504021350 45 341 0.0 0.0 0.00 0.00 0.00 68 1010.9
20260504021132 46 341 0.0 0.0 0.00 0.00 0.00 68 1010.9
20260504020900 46 341 0.0 0.0 0.00 0.00 0.00 67 1010.8
20260504020656 46 341 0.0 1.0 0.00 0.00 0.00 67 1010.9
20260504020407 46 341 0.0 1.0 0.00 0.00 0.00 67 1010.9
20260504020143 46 341 0.0 1.0 0.00 0.00 0.00 67 1010.9
20260504015854 46 341 0.0 1.0 0.00 0.00 0.00 67 1010.9
20260504015633 46 341 0.0 0.0 0.00 0.00 0.00 66 1010.8
20260504015344 47 341 0.0 0.0 0.00 0.00 0.00 65 1010.8
20260504015142 47 341 0.0 0.0 0.00 0.00 0.00 65 1010.8
20260504014851 47 341 0.0 0.0 0.00 0.00 0.00 65 1010.7
20260504014648 47 341 0.0 1.0 0.00 0.00 0.00 65 1010.7
20260504014339 47 341 0.0 2.0 0.00 0.00 0.00 64 1010.7
20260504014138 47 341 0.0 2.0 0.00 0.00 0.00 64 1010.7
20260504013849 47 341 1.0 2.0 0.00 0.00 0.00 63 1010.7
20260504013647 48 341 1.0 2.0 0.00 0.00 0.00 63 1010.7
20260504013337 48 341 0.0 1.0 0.00 0.00 0.00 62 1010.6
20260504013135 48 341 0.0 1.0 0.00 0.00 0.00 61 1010.6
20260504012845 48 341 0.0 1.0 0.00 0.00 0.00 61 1010.5
20260504012643 48 341 0.0 2.0 0.00 0.00 0.00 61 1010.6
20260504012409 48 341 1.0 2.0 0.00 0.00 0.00 61 1010.6
20260504012211 49 341 0.0 2.0 0.00 0.00 0.00 60 1010.6
20260504011858 49 341 2.0 2.0 0.00 0.00 0.00 59 1010.5
20260504011638 49 341 1.0 2.0 0.00 0.00 0.00 58 1010.5
20260504011345 49 341 1.0 2.0 0.00 0.00 0.00 58 1010.5
20260504011147 50 341 1.0 1.0 0.00 0.00 0.00 58 1010.5
20260504010835 50 341 1.0 2.0 0.00 0.00 0.00 57 1010.4
20260504010636 50 341 1.0 2.0 0.00 0.00 0.00 57 1010.4
20260504010343 50 341 0.0 2.0 0.00 0.00 0.00 56 1010.4
20260504010140 50 341 1.0 2.0 0.00 0.00 0.00 56 1010.3
20260504005832 51 341 1.0 2.0 0.00 0.00 0.00 55 1010.3
20260504005650 51 341 2.0 3.0 0.00 0.00 0.00 55 1010.2
20260504005341 51 341 1.0 3.0 0.00 0.00 0.00 53 1010.2
20260504005139 52 341 1.0 3.0 0.00 0.00 0.00 53 1010.2
20260504004850 52 341 2.0 3.0 0.00 0.00 0.00 51 1010.2
20260504004648 53 341 2.0 2.0 0.00 0.00 0.00 51 1010.1
20260504004338 53 341 1.0 3.0 0.00 0.00 0.00 49 1010.1
20260504004135 53 341 1.0 3.0 0.00 0.00 0.00 48 1010.1
20260504003845 54 341 1.0 3.0 0.00 0.00 0.00 47 1010.0
20260504003704 54 341 1.0 3.0 0.00 0.00 0.00 46 1010.0
20260504003334 55 341 1.0 3.0 0.00 0.00 0.00 46 1009.9
20260504003152 55 341 1.0 1.0 0.00 0.00 0.00 45 1010.0
20260504002842 55 341 0.0 1.0 0.00 0.00 0.00 43 1009.9
20260504002639 56 341 0.0 1.0 0.00 0.00 0.00 43 1009.9
20260504002350 56 341 0.0 1.0 0.00 0.00 0.00 41 1009.8
20260504002147 56 341 0.0 2.0 0.00 0.00 0.00 41 1009.8
20260504001838 57 341 0.0 2.0 0.00 0.00 0.00 41 1009.7
20260504001636 57 341 0.0 2.0 0.00 0.00 0.00 40 1009.8
20260504001344 57 341 0.0 2.0 0.00 0.00 0.00 40 1009.7
20260504001141 57 341 0.0 2.0 0.00 0.00 0.00 39 1009.7
20260504000909 57 341 1.0 2.0 0.00 0.00 0.00 38 1009.7
20260504000711 57 341 0.0 2.0 0.00 0.00 0.00 38 1009.6
20260504000337 57 340 1.0 8.0 0.00 0.00 0.00 39 1009.5
20260504000139 58 340 1.0 10.0 0.00 0.00 0.00 39 1009.5
20260503235905 58 341 2.0 10.0 0.00 0.00 0.00 38 1009.5
20260503235646 58 346 2.0 10.0 0.00 0.00 0.00 38 1009.5
20260503235334 58 356 0.0 8.0 0.00 0.00 0.00 37 1009.4
20260503235136 58 356 1.0 8.0 0.00 0.00 0.00 37 1009.4
20260503234842 58 356 1.0 8.0 0.00 0.00 0.00 38 1009.4
20260503234640 58 351 2.0 8.0 0.00 0.00 0.00 36 1009.4
20260503234351 58 275 1.0 5.0 0.00 0.00 0.00 36 1009.3
20260503234150 58 275 1.0 5.0 0.00 0.00 0.00 37 1009.3
20260503233840 58 275 3.0 5.0 0.00 0.00 0.00 37 1009.3
20260503233639 58 321 2.0 7.0 0.00 0.00 0.00 36 1009.3
20260503233350 59 351 1.0 8.0 0.00 0.00 0.00 36 1009.2
20260503233148 59 351 2.0 10.0 0.00 0.00 0.00 36 1009.1
20260503232838 59 260 4.0 10.0 0.00 0.00 0.00 35 1009.1
20260503232635 59 304 2.0 10.0 0.00 0.00 0.00 36 1009.1
20260503232346 59 268 3.0 10.0 0.00 0.00 0.00 36 1009.1
20260503232143 59 327 3.0 10.0 0.00 0.00 0.00 35 1009.1
20260503231833 59 295 2.0 10.0 0.00 0.00 0.00 36 1009.2
20260503231651 59 295 3.0 10.0 0.00 0.00 0.00 35 1009.1
20260503231338 59 356 3.0 10.0 0.00 0.00 0.00 37 1009.1
20260503231137 59 273 2.0 4.0 0.00 0.00 0.00 35 1009.0
20260503230847 59 317 0.0 7.0 0.00 0.00 0.00 35 1009.0
20260503230645 59 317 1.0 7.0 0.00 0.00 0.00 35 1009.0
20260503230336 59 325 3.0 7.0 0.00 0.00 0.00 35 1009.0
20260503230134 59 232 2.0 7.0 0.00 0.00 0.00 36 1009.0
20260503225845 59 238 1.0 6.0 0.00 0.00 0.00 35 1008.9
20260503225643 59 238 1.0 6.0 0.00 0.00 0.00 34 1008.9
20260503225334 59 267 1.0 8.0 0.00 0.00 0.00 35 1008.9
20260503225151 59 4 1.0 13.0 0.00 0.00 0.00 34 1008.8
20260503224843 59 5 2.0 13.0 0.00 0.00 0.00 34 1008.8
20260503224639 59 14 2.0 13.0 0.00 0.00 0.00 34 1008.8
20260503224407 60 292 5.0 12.0 0.00 0.00 0.00 33 1008.7
20260503224148 60 11 2.0 9.0 0.00 0.00 0.00 33 1008.8
20260503223835 60 346 1.0 10.0 0.00 0.00 0.00 35 1008.7
20260503223638 60 346 2.0 10.0 0.00 0.00 0.00 34 1008.8
20260503223344 60 258 5.0 10.0 0.00 0.00 0.00 34 1008.8
20260503223147 60 351 2.0 8.0 0.00 0.00 0.00 35 1008.8
20260503222832 60 315 2.0 9.0 0.00 0.00 0.00 34 1008.7
20260503222633 60 289 4.0 9.0 0.00 0.00 0.00 32 1008.8
20260503222339 60 360 2.0 18.0 0.00 0.00 0.00 33 1008.8
20260503222141 60 360 4.0 18.0 0.00 0.00 0.00 33 1008.8
20260503221848 60 346 3.0 18.0 0.00 0.00 0.00 33 1008.8
20260503221648 60 360 8.0 18.0 0.00 0.00 0.00 32 1008.8
20260503221334 60 356 4.0 13.0 0.00 0.00 0.00 33 1008.9
20260503221136 60 322 4.0 13.0 0.00 0.00 0.00 32 1008.9
20260503220845 60 324 6.0 14.0 0.00 0.00 0.00 33 1008.9
20260503220704 60 356 2.0 14.0 0.00 0.00 0.00 33 1008.9
20260503220334 60 356 3.0 14.0 0.00 0.00 0.00 34 1008.9
20260503220152 60 297 7.0 14.0 0.00 0.00 0.00 33 1008.9
20260503215842 60 252 4.0 11.0 0.00 0.00 0.00 32 1008.8
20260503215640 60 32 3.0 11.0 0.00 0.00 0.00 32 1008.8
20260503215352 60 254 4.0 14.0 0.00 0.00 0.00 32 1008.8
20260503215150 60 360 3.0 14.0 0.00 0.00 0.00 33 1008.8
20260503214840 60 4 5.0 14.0 0.00 0.00 0.00 32 1008.9
20260503214659 60 346 6.0 14.0 0.00 0.00 0.00 33 1008.9
20260503214348 60 346 4.0 14.0 0.00 0.00 0.00 32 1008.9
20260503214145 60 356 5.0 14.0 0.00 0.00 0.00 32 1009.0
20260503213856 60 12 5.0 12.0 0.00 0.00 0.00 32 1008.9
20260503213633 60 321 7.0 12.0 0.00 0.00 0.00 32 1008.9
20260503213359 60 324 5.0 12.0 0.00 0.00 0.00 33 1009.0
20260503213200 60 238 4.0 12.0 0.00 0.00 0.00 32 1008.9
20260503212847 60 48 3.0 9.0 0.00 0.00 0.00 32 1008.9
20260503212648 60 267 3.0 9.0 0.00 0.00 0.00 32 1008.8
20260503212335 61 316 2.0 12.0 0.00 0.00 0.00 34 1008.8
20260503212138 60 247 3.0 12.0 0.00 0.00 0.00 32 1008.8
20260503211844 60 351 4.0 12.0 0.00 0.00 0.00 31 1008.8
20260503211706 60 337 4.0 15.0 0.00 0.00 0.00 33 1008.8
20260503211349 60 28 4.0 17.0 0.00 0.00 0.00 31 1008.7
20260503211146 60 299 5.0 17.0 0.00 0.00 0.00 31 1008.8
20260503210856 60 225 7.0 17.0 0.00 0.00 0.00 31 1008.7
20260503210716 61 6 5.0 16.0 0.00 0.00 0.00 32 1009.0
20260503210406 61 317 5.0 11.0 0.00 0.00 0.00 31 1008.8
20260503210142 61 226 3.0 11.0 0.00 0.00 0.00 34 1008.8
20260503205834 61 360 3.0 11.0 0.00 0.00 0.00 31 1008.8
20260503205632 61 10 5.0 11.0 0.00 0.00 0.00 32 1008.8
20260503205345 61 20 2.0 12.0 0.00 0.00 0.00 32 1008.8
20260503205143 61 294 2.0 12.0 0.00 0.00 0.00 33 1008.8
20260503204853 61 286 3.0 12.0 0.00 0.00 0.00 33 1008.9
20260503204712 61 231 4.0 12.0 0.00 0.00 0.00 32 1008.9
20260503204400 61 13 5.0 13.0 0.00 0.00 0.00 32 1008.8
20260503204137 61 273 3.0 13.0 0.00 0.00 0.00 36 1008.9
20260503203903 60 16 6.0 14.0 0.00 0.00 0.00 34 1008.9
20260503203643 60 313 6.0 14.0 0.00 0.00 0.00 32 1008.9
20260503203350 60 340 5.0 14.0 0.00 0.00 0.00 33 1008.8
20260503203153 60 15 5.0 15.0 0.00 0.00 0.00 33 1008.9
20260503202840 60 25 4.0 15.0 0.00 0.00 0.00 33 1009.0
20260503202643 60 8 3.0 15.0 0.00 0.00 0.00 34 1009.0
20260503202350 59 351 3.0 15.0 0.00 0.00 0.00 36 1009.0
20260503202151 59 319 4.0 15.0 0.00 0.00 0.00 34 1008.8
20260503201838 59 6 5.0 17.0 0.00 0.00 0.00 33 1008.9
20260503201657 59 266 6.0 17.0 0.00 0.00 0.00 31 1008.9
20260503201406 60 267 6.0 17.0 0.00 0.00 0.00 33 1008.9
20260503201142 60 181 9.0 17.0 0.00 0.00 0.00 34 1009.1
20260503200853 60 243 7.0 16.0 0.00 0.00 0.00 34 1009.0
20260503200651 60 297 5.0 14.0 0.00 0.00 0.00 33 1009.0
20260503200401 60 5 7.0 13.0 0.00 0.00 0.00 34 1008.9
20260503200139 59 8 6.0 12.0 0.00 0.00 0.00 32 1009.1
20260503195850 59 356 5.0 12.0 0.00 0.00 0.00 34 1009.1
20260503195649 59 8 5.0 13.0 0.00 0.00 0.00 33 1009.2
20260503195339 59 351 3.0 17.0 0.00 0.00 0.00 35 1009.1
20260503195136 59 225 5.0 17.0 0.00 0.00 0.00 34 1009.1
20260503194847 59 248 8.0 17.0 0.00 0.00 0.00 33 1009.2
20260503194645 59 296 7.0 18.0 0.00 0.00 0.00 34 1009.2
20260503194338 59 45 3.0 18.0 0.00 0.00 0.00 37 1009.2
20260503194137 58 316 6.0 18.0 0.00 0.00 0.00 34 1009.1
20260503193842 58 272 6.0 17.0 0.00 0.00 0.00 35 1009.1
20260503193645 58 272 5.0 17.0 0.00 0.00 0.00 35 1009.2
20260503193333 58 242 6.0 16.0 0.00 0.00 0.00 36 1009.5
20260503193134 58 346 8.0 18.0 0.00 0.00 0.00 36 1009.3
20260503192840 58 23 7.0 18.0 0.00 0.00 0.00 34 1009.6
20260503192643 58 7 6.0 18.0 0.00 0.00 0.00 36 1009.4
20260503192349 59 13 4.0 17.0 0.00 0.00 0.00 36 1009.6
20260503192150 59 285 5.0 17.0 0.00 0.00 0.00 35 1009.5
20260503191837 59 232 6.0 14.0 0.00 0.00 0.00 37 1009.6
20260503191639 59 346 6.0 17.0 0.00 0.00 0.00 37 1009.7
20260503191344 59 273 6.0 17.0 0.00 0.00 0.00 35 1009.5
20260503191145 59 351 5.0 17.0 0.00 0.00 0.00 35 1009.6
20260503190832 58 336 5.0 15.0 0.00 0.00 0.00 38 1009.6
20260503190634 58 237 6.0 17.0 0.00 0.00 0.00 35 1009.7
20260503190342 58 331 7.0 17.0 0.00 0.00 0.00 38 1009.6
20260503190143 58 241 5.0 17.0 0.00 0.00 0.00 39 1009.6
20260503185850 58 337 6.0 17.0 0.00 0.00 0.00 35 1009.6
20260503185647 58 268 7.0 16.0 0.00 0.00 0.00 35 1009.6
20260503185357 58 237 5.0 16.0 0.00 0.00 0.00 38 1009.7
20260503185133 58 292 4.0 20.0 0.00 0.00 0.00 39 1009.7
20260503184844 58 346 5.0 22.0 0.00 0.00 0.00 36 1009.7
20260503184642 58 290 4.0 22.0 0.00 0.00 0.00 37 1009.6
20260503184354 58 263 6.0 22.0 0.00 0.00 0.00 40 1009.8